Location: Unspecified
(0.0000°N, 0.0000°E)
Time: 05:19:12
(UTC+00:00)

Explorer 7 - Pass Details

Date: 01 October 2020
Orbit: 484 x 678 km, 50.3° (Epoch: 28 October)

Event Time Altitude Azimuth Distance (km) Brightness Sun altitude
Rises 07:51:52 0° 348° (NNW) 2,993 10.4 30.5°
Reaches altitude 10° 07:54:49 10° 6° (N) 2,063 9.9 31.3°
Maximum altitude 07:58:14 19° 51° (NE) 1,506 10.0 32.1°
Drops below altitude 10° 08:01:33 10° 98° (E) 1,999 11.2 32.9°
Sets 08:04:21 0° 115° (ESE) 2,870 11.4 33.6°
